| time (UTC) | temp F | wind direction | speed knots | gust knots | rain 1hr in | rain 24hr in | rain mn in | humidity % | barometer mb |
| 20260504231004 | 52 | 145 | 3.5 | 4.3 | 0.00 | 0.00 | 0.00 | 90 | 1017.6 |
| 20260504230005 | 52 | 200 | 4.3 | 4.3 | 0.00 | 0.00 | 0.00 | 90 | 1017.3 |
| 20260504225004 | 52 | 200 | 4.3 | 6.1 | 0.00 | 0.00 | 0.00 | 90 | 1017.3 |
| 20260504224004 | 53 | 190 | 6.1 | 6.1 | 0.00 | 0.00 | 0.00 | 90 | 1017.6 |
| 20260504223004 | 53 | 170 | 5.2 | 6.1 | 0.00 | 0.00 | 0.00 | 90 | 1017.6 |
| 20260504222004 | 53 | 120 | 4.3 | 5.2 | 0.00 | 0.00 | 0.00 | 90 | 1017.3 |
| 20260504221004 | 53 | 152 | 5.2 | 5.2 | 0.00 | 0.00 | 0.00 | 90 | 1017.3 |
| 20260504220004 | 54 | 105 | 5.2 | 5.2 | 0.00 | 0.00 | 0.00 | 90 | 1017.6 |
| 20260504215004 | 54 | 112 | 4.3 | 5.2 | 0.00 | 0.00 | 0.00 | 90 | 1017.6 |
| 20260504214004 | 54 | 135 | 4.3 | 5.2 | 0.00 | 0.00 | 0.00 | 90 | 1017.9 |
| 20260504213004 | 54 | 128 | 3.5 | 5.2 | 0.00 | 0.00 | 0.00 | 90 | 1017.9 |
| 20260504212004 | 54 | 138 | 5.2 | 5.2 | 0.00 | 0.00 | 0.00 | 90 | 1017.9 |
| 20260504211004 | 54 | 134 | 5.2 | 5.2 | 0.00 | 0.00 | 0.00 | 91 | 1017.9 |
| 20260504210004 | 54 | 129 | 2.6 | 2.6 | 0.00 | 0.00 | 0.00 | 91 | 1017.6 |
| 20260504205004 | 54 | 141 | 2.6 | 2.6 | 0.00 | 0.00 | 0.00 | 92 | 1017.6 |
| 20260504204004 | 54 | 141 | 2.6 | 2.6 | 0.00 | 0.00 | 0.00 | 92 | 1017.6 |
| 20260504203004 | 55 | 140 | 2.6 | 4.3 | 0.00 | 0.00 | 0.00 | 92 | 1017.7 |
| 20260504201005 | 55 | 146 | 4.3 | 4.3 | 0.00 | 0.00 | 0.00 | 92 | 1017.6 |
| 20260504200004 | 55 | 146 | 4.3 | 5.2 | 0.00 | 0.00 | 0.00 | 92 | 1017.6 |
| 20260504195003 | 55 | 134 | 5.2 | 5.2 | 0.00 | 0.00 | 0.00 | 92 | 1017.3 |
| 20260504194004 | 55 | 157 | 2.6 | 2.6 | 0.00 | 0.00 | 0.00 | 92 | 1017.3 |
| 20260504193004 | 55 | 136 | 1.7 | 1.7 | 0.00 | 0.00 | 0.00 | 92 | 1017.3 |
| 20260504192004 | 55 | 110 | 3.5 | 6.1 | 0.00 | 0.00 | 0.00 | 91 | 1017.3 |
| 20260504191004 | 56 | 170 | 6.1 | 6.1 | 0.00 | 0.00 | 0.00 | 90 | 1017.3 |
| 20260504190004 | 56 | 158 | 6.1 | 6.1 | 0.00 | 0.00 | 0.00 | 90 | 1017.3 |
| 20260504185004 | 56 | 184 | 6.1 | 6.1 | 0.00 | 0.00 | 0.00 | 90 | 1017.3 |
| 20260504184004 | 56 | 184 | 2.6 | 6.1 | 0.00 | 0.00 | 0.00 | 90 | 1017.3 |
| 20260504183004 | 56 | 129 | 6.1 | 6.1 | 0.00 | 0.00 | 0.00 | 90 | 1017.3 |
| 20260504182004 | 57 | 151 | 6.1 | 6.1 | 0.00 | 0.00 | 0.00 | 89 | 1016.9 |
| 20260504181004 | 57 | 151 | 6.1 | 6.1 | 0.00 | 0.00 | 0.00 | 89 | 1016.9 |
| 20260504180004 | 57 | 116 | 4.3 | 5.2 | 0.00 | 0.00 | 0.00 | 90 | 1016.9 |
| 20260504175004 | 57 | 138 | 5.2 | 5.2 | 0.00 | 0.00 | 0.00 | 88 | 1017.3 |
| 20260504173004 | 58 | 248 | 0.0 | 0.9 | 0.00 | 0.00 | 0.00 | 87 | 1017.3 |
| 20260504172006 | 59 | 116 | 0.9 | 0.9 | 0.00 | 0.00 | 0.00 | 87 | 1017.3 |
| 20260504171005 | 59 | 116 | 0.9 | 0.9 | 0.00 | 0.00 | 0.00 | 87 | 1017.3 |
| 20260504151005 | 60 | 224 | 4.3 | 5.2 | 0.00 | 0.00 | 0.00 | 92 | 1016.6 |
| 20260504141005 | 61 | 306 | 5.2 | 5.2 | 0.00 | 0.00 | 0.00 | 91 | 1016.9 |
| 20260504082005 | 59 | 32 | 1.7 | 1.7 | 0.00 | 0.11 | 0.00 | 90 | 1016.9 |
| 20260504081005 | 59 | 113 | 1.7 | 1.7 | 0.00 | 0.11 | 0.00 | 92 | 1016.9 |
| 20260504045006 | 54 | 296 | 0.9 | 0.9 | 0.00 | 0.13 | 0.00 | 99 | 1015.6 |
| 20260504043005 | 55 | 279 | 1.7 | 1.7 | 0.00 | 0.13 | 0.00 | 98 | 1015.6 |
| 20260504042005 | 55 | 324 | 1.7 | 1.7 | 0.00 | 0.13 | 0.00 | 98 | 1015.6 |
| 20260504034005 | 55 | 31 | 0.0 | 0.0 | 0.00 | 0.16 | 0.00 | 98 | 1015.2 |
| 20260504033005 | 55 | 30 | 0.0 | 0.0 | 0.00 | 0.19 | 0.00 | 98 | 1015.2 |
| 20260504032005 | 55 | 30 | 0.0 | 0.0 | 0.00 | 0.19 | 0.00 | 98 | 1015.2 |
| 20260504030004 | 55 | 31 | 0.0 | 0.0 | 0.00 | 0.19 | 0.00 | 98 | 1015.2 |
| 20260504025005 | 55 | 31 | 0.0 | 0.0 | 0.00 | 0.19 | 0.00 | 98 | 1015.2 |
| 20260504024005 | 55 | 31 | 0.0 | 0.0 | 0.00 | 0.19 | 0.00 | 98 | 1015.2 |
| 20260504023005 | 56 | 30 | 0.0 | 0.0 | 0.00 | 0.19 | 0.00 | 98 | 1015.2 |
| 20260504021005 | 56 | 31 | 0.0 | 1.7 | 0.00 | 0.19 | 0.00 | 98 | 1015.2 |
| 20260504020005 | 57 | 30 | 1.7 | 1.7 | 0.00 | 0.19 | 0.00 | 98 | 1014.9 |
| 20260504015004 | 57 | 30 | 1.7 | 1.7 | 0.00 | 0.19 | 0.00 | 98 | 1014.9 |
| 20260504014005 | 57 | 31 | 0.0 | 0.0 | 0.00 | 0.19 | 0.00 | 98 | 1015.2 |
| 20260504013005 | 56 | 29 | 0.0 | 0.0 | 0.00 | 0.19 | 0.00 | 98 | 1015.6 |
| 20260504011005 | 56 | 30 | 0.0 | 1.7 | 0.00 | 0.19 | 0.00 | 98 | 1015.2 |
| 20260504010005 | 56 | 30 | 1.7 | 1.7 | 0.00 | 0.19 | 0.00 | 98 | 1015.2 |
| 20260504005005 | 56 | 31 | 1.7 | 1.7 | 0.00 | 0.19 | 0.00 | 97 | 1014.9 |
| 20260504004004 | 56 | 31 | 1.7 | 1.7 | 0.00 | 0.19 | 0.00 | 97 | 1014.9 |
| 20260504003005 | 56 | 47 | 1.7 | 1.7 | 0.00 | 0.19 | 0.00 | 97 | 1015.2 |
| 20260504002005 | 56 | 47 | 1.7 | 1.7 | 0.00 | 0.19 | 0.00 | 97 | 1015.2 |
| 20260504000005 | 57 | 71 | 2.6 | 2.6 | 0.00 | 0.19 | 0.00 | 97 | 1015.2 |
| 20260503234005 | 57 | 44 | 1.7 | 2.6 | 0.00 | 0.19 | 0.00 | 97 | 1015.2 |